SCP
0 0 0 0 0 0 0 0 0 0 0 0 0 0 0 0 0 0 0 0 0 0 0 0 0 0 0 0 0 0 0 0 0 0 0 0 0 0 0 0 0 0 0 0
0 0 0 0 0 0 0 0 0 0 0 0 0 0 0 0 0 0 0 0 0 0 0 0 0 0 0 0 0 0 0 0 0 0 0 0 0 0 0 0 0 0 0 0
0 0 0 0 0 0 0 0 0 0 0 0 0 0 0 0 0 0 0 0 0 0 0 0 0 0 0 0 0 0 0 0 0 0 0 0 0 0 0 0 0 0 0 0
0 0 0 0 0 0 0 0 0 0 0 0 0 0 0 0 0 0 0 0 0 0 0 0 0 0 0 0 0 0 0 0 0 0 0 0 0 0 0 0 0 0 0 0
0 0 0 0 0 0 0 0 0 0 0 0 0 0 0 0 0 0 0 0 0 0 0 0 0 0 0 0 0 0 0 0 0 0 0 0 0 0 0 0 0 0 0 0
0 0 0 0 0 0 0 0 0 0 0 0 0 0 0 0 0 0 0 0 0 0 0 0 0 0 0 0 0 0 0 0 0 0 0 0 0 0 0 0 0 0 0 0
0 0 0 0 0 0 0 0 0 0 0 0 0 0 0 0 0 0 0 0 0 0 0 0 0 0 0 0 0 0 0 0 0 0 0 0 0 0 0 0 0 0 0 0
0 0 0 0 0 0 0 0 0 0 0 0 0 0 0 0 0 0 0 0 0 0 0 0 0 0 0 0 0 0 0 0 0 0 0 0 0 0 0 0 0 0 0 0
0 0 0 0 0 0 0 0 0 0 0 0 0 0 0 0 0 0 0 0 0 0 0 0 0 0 0 0 0 0 0 0 0 0 0 0 0 0 0 0 0 0 0 0
0 0 0 0 0 0 0 0 0 0 0 0 0 0 0 0 0 0 0 0 0 0 0 0 0 0 0 0 0 0 0 0 0 0 0 0 0 0 0 0 0 0 0 0
0 0 0 0 0 0 0 0 0 0 0 0 0 0 0 0 0 0 0 0 0 0 0 0 0 0 0 0 0 0 0 0 0 0 0 0 0 0 0 0 0 0 0 0
0 0 0 0 0 0 0 0 0 0 0 0 0 0 0 0 0 0 0 0 0 0 0 0 0 0 0 0 0 0 0 0 0 0 0 0 0 0 0 0 0 0 0 0
0 0 0 0 0 0 0 0 0 0 0 0 0 0 0 0 0 0 0 0 0 0 0 0 0 0 0 0 0 0 0 0 0 0 0 0 0 0 0 0 0 0 0 0
0 0 0 0 0 0 0 0 0 0 0 0 0 0 0 0 0 0 0 0 0 0 0 0 0 0 0 0 0 0 0 0 0 0 0 0 0 0 0 0 0 0 0 0
0 0 0 0 0 0 0 0 0 0 0 0 0 0 0 0 0 0 0 0 0 0 0 0 0 0 0 0 0 0 0 0 0 0 0 0 0 0 0 0 0 0 0 0
0 0 0 0 0 0 0 0 0 0 0 0 0 0 0 0 0 0 0 0 0 0 0 0 0 0 0 0 0 0 0 0 0 0 0 0 0 0 0 0 0 0 0 0
0 0 0 0 0 0 0 0 0 0 0 0 0 0 0 0 0 0 0 0 0 0 0 0 0 0 0 0 0 0 0 0 0 0 0 0 0 0 0 0 0 0 0 0
0 0 0 0 0 0 0 0 0 0 0 0 0 0 0 0 0 0 0 0 0 0 0 0 0 0 0 0 0 0 0 0 0 0 0 0 0 0 0 0 0 0 0 0
0 0 0 0 0 0 0 0 0 0 0 0 0 0 0 0 0 0 0 0 0 0 0 0 0 0 0 0 0 0 0 0 0 0 0 0 0 0 0 0 0 0 0 0
0 0 0 0 0 0 0 0 0 0 0 0 0 0 0 0 0 0 0 0 0 0 0 0 0 0 0 0 0 0 0 0 0 0 0 0 0 0 0 0 0 0 0 -0
0 0 0 0 0 0 0 0 0 0 0 0 0 0 0 0 0 0 0 0 0 0 0 0 0 0 0 0 0 0 0 0 0 0 0 0 0 0 0 0 0 0 0 0
0 0 0 0 0 0 0 0 0 0 0 0 0 0 0 0 0 0 0 0 0 0 0 0 0 0 0 0 0 0 0 0 0 0 0 0 0 0 0 0 0 0 0 0
0 0 0 0 0 0 0 0 0 0 0 0 0 0 0 0 0 0 0 0 0 0 0 0 0 0 0 0 0 0 0 0 0 0 0 0 0 0 0 0 0 0 0 0
0 0 0 0 0 0 0 0 0 0 0 0 0 0 0 0 0 0 0 0 0 0 0 0 0 0 0 0 0 0 0 0 0 0 0 0 0 0 0 0 0 0 0 0
0 0 0 0 0 0 0 0 0 0 0 0 0 0 0 0 0 0 0 0 0 0 0 0 0 0 0 0 0 0 0 0 0 0 0 0 0 0 0 0 0 0 0 0
0 0 0 0 0 0 0 0 0 0 0 0 0 0 0 0 0 0 0 0 0 0 0 0 0 0 0 0 0 0 0 0 0 0 0 0 0 0 0 0 0 0 0 0
0 0 0 0 0 0 0 0 0 0 0 0 0 0 0 0 0 0 0 0 0 0 0 0 0 0 0 0 0 0 0 0 0 0 0 0 0 0 0 0 0 0 0 0
Wind_Speed_500mb
11 9 10 8 7 13 11 10 12 12 13 15 11 15 21 23 18 20 33 47 54 59 61 63 65 64 59 60 64 64 66 66 64 56 48 45 43 35 33 27 20 13 15 29
4 5 4 9 13 13 12 9 12 10 11 6 3 9 25 23 24 20 14 3 21 46 54 62 64 64 56 65 66 59 62 56 54 48 41 34 35 36 35 17 16 22 46 44
9 5 5 11 16 15 11 8 11 12 16 7 7 13 19 25 29 27 22 19 14 6 14 34 47 53 56 51 52 51 47 49 44 36 38 40 37 27 20 15 41 37 35 36
5 5 3 13 8 9 10 4 9 7 11 12 19 25 25 23 25 25 22 17 12 8 3 10 22 34 41 43 45 45 48 48 45 46 43 28 16 7 37 34 22 24 30 36
9 8 9 2 7 14 13 6 5 12 15 25 34 28 24 18 16 17 15 12 7 5 7 14 23 32 35 36 42 47 48 45 41 32 20 8 27 41 50 21 22 30 40 45
7 9 14 17 8 17 11 4 14 15 16 22 10 5 6 7 12 12 10 9 8 7 8 13 20 27 35 44 48 46 40 33 21 5 19 36 53 21 18 26 37 45 49 42
6 6 14 14 11 19 12 15 36 38 33 30 9 10 25 17 16 14 13 14 15 16 18 22 30 36 42 42 36 29 17 11 21 38 36 26 17 23 33 43 47 45 47 46
7 6 13 13 11 16 13 25 46 35 32 29 31 35 32 25 22 20 21 22 22 27 33 33 27 18 20 13 7 19 22 30 28 20 17 22 30 37 40 41 45 48 51 54
16 12 4 9 10 14 48 63 42 45 40 38 46 40 34 31 29 31 34 34 32 32 34 29 19 10 1 4 7 12 13 13 16 22 29 33 36 39 42 44 50 54 55 59
8 4 2 9 29 51 52 53 42 42 41 40 44 43 40 39 41 38 34 32 28 24 20 17 11 10 10 8 7 11 17 21 26 29 31 35 39 42 48 51 55 60 64 67
5 3 14 11 34 47 46 45 44 40 37 37 41 45 47 48 43 37 32 27 21 19 18 21 15 9 4 6 11 14 19 24 29 33 39 45 48 52 56 60 60 65 70 70
10 38 15 27 44 44 47 43 37 36 40 37 41 54 51 48 40 34 33 29 26 24 19 13 5 3 5 11 18 25 30 36 42 47 51 55 62 72 69 69 72 71 72 69
17 58 24 57 51 44 44 41 38 37 38 48 47 50 49 48 42 38 34 27 20 15 10 5 2 9 14 19 25 31 37 43 50 55 60 66 70 73 83 93 85 86 87 88
47 70 43 58 35 43 42 45 45 46 48 50 53 50 50 46 41 33 25 19 13 7 4 2 8 14 21 28 34 39 43 48 55 59 62 64 66 68 70 73 80 91 88 75
46 25 55 53 55 50 47 55 58 58 57 56 48 46 41 42 33 25 19 12 7 3 3 8 14 21 29 35 42 49 53 56 58 60 61 62 63 65 65 66 68 73 76 72
39 44 59 63 59 58 61 61 63 62 54 52 48 42 35 28 24 19 13 6 3 5 11 18 24 31 39 45 49 51 53 55 57 58 59 59 58 58 58 54 64 70 76 76
67 48 60 62 63 64 61 57 56 57 54 48 41 35 28 24 19 13 6 1 6 11 17 25 32 37 43 46 49 51 52 52 52 51 51 52 53 52 51 50 62 68 60 49
24 47 51 62 72 68 59 55 53 49 44 40 36 31 25 18 12 8 3 4 11 17 23 29 35 40 42 44 44 45 46 47 47 47 48 49 49 46 45 52 57 58 61 57
36 52 54 58 62 61 59 53 44 40 40 37 32 27 19 11 7 2 3 9 15 20 28 33 38 39 38 39 41 42 43 44 45 45 46 47 47 46 48 50 54 55 55 56
55 54 56 58 55 53 51 44 44 42 37 30 24 17 11 6 1 5 9 15 19 26 33 36 36 36 36 38 40 42 43 44 46 46 46 46 46 48 49 50 52 53 51 50
54 56 59 60 54 45 44 41 38 36 32 24 16 11 6 2 5 10 14 19 24 30 34 35 34 34 37 41 43 43 43 43 44 46 46 47 47 47 48 51 52 52 52 49
60 60 54 52 52 48 41 35 28 27 24 19 14 7 2 5 8 12 18 22 27 31 32 33 35 38 40 44 44 45 43 42 43 43 44 44 45 47 48 50 51 51 50 49
55 53 56 45 39 38 35 32 27 21 17 12 7 2 5 9 13 18 22 25 27 29 31 35 37 39 41 44 45 44 43 42 43 43 42 42 44 45 48 49 48 49 50 50
56 51 41 35 37 41 38 32 25 18 11 6 4 9 13 16 20 23 24 24 27 29 32 37 38 39 42 44 44 43 42 42 42 42 41 42 43 45 47 48 48 49 49 48
38 40 40 40 36 32 28 26 20 13 9 9 12 16 18 21 22 22 23 25 29 33 37 39 38 39 42 43 43 41 40 41 41 42 43 45 46 46 47 48 48 50 50 50
42 45 43 33 28 25 22 18 13 12 12 16 20 21 22 21 21 22 24 28 33 38 40 38 37 39 41 42 41 40 39 39 39 42 44 44 45 47 48 48 49 49 50 51
38 34 33 30 24 20 18 15 14 14 17 20 22 22 21 21 22 25 29 32 36 39 38 36 37 38 40 40 39 38 37 38 40 41 42 44 45 48 49 49 49 49 51 52
Wind_Direction_500mb
217 190 188 214 215 165 173 203 164 244 205 262 282 276 280 285 232 238 240 235 234 235 234 235 234 237 240 233 222 229 216 216 216 217 217 226 234 214 228 198 254 227 267 282
90 7 202 198 220 201 207 196 258 253 242 235 345 68 63 80 115 100 98 133 246 247 246 244 238 236 247 225 217 218 210 213 211 212 223 218 212 221 218 222 210 261 297 291
220 5 15 328 224 212 221 195 176 196 221 148 64 72 74 92 90 90 90 86 81 87 252 251 245 245 244 234 217 213 213 207 206 210 207 199 199 200 175 249 296 291 279 273
158 48 317 247 309 214 154 299 241 143 131 127 126 99 85 89 96 91 83 79 78 87 152 216 230 230 228 214 206 198 195 195 199 195 189 172 165 233 306 296 266 268 286 293
138 190 292 331 211 160 154 235 299 134 128 138 119 92 58 74 78 82 83 89 112 158 209 219 220 215 208 193 192 191 186 182 177 163 151 220 305 302 288 268 285 292 295 295
146 152 209 230 230 176 123 246 200 171 167 166 135 95 250 132 127 127 122 122 128 140 169 191 185 197 196 180 176 170 163 155 149 220 305 298 300 282 285 291 290 290 291 285
129 192 284 245 214 149 151 235 175 175 168 172 161 204 164 170 156 160 156 154 152 148 150 157 167 176 165 157 150 145 145 208 261 289 302 301 287 289 289 291 289 287 288 287
86 82 274 188 138 169 203 138 163 163 153 142 146 147 158 166 159 150 139 127 123 121 112 112 121 145 134 146 228 277 287 298 304 302 291 293 294 294 293 291 290 291 293 293
177 206 260 238 238 198 156 154 158 156 158 158 157 160 162 154 141 129 127 126 126 125 124 122 120 109 145 241 280 309 315 319 317 311 307 304 303 301 298 297 297 298 297 296
116 216 37 131 152 159 160 156 156 162 162 164 162 165 157 147 141 138 134 129 126 125 121 111 91 68 70 52 7 333 321 321 322 321 317 311 307 306 305 304 303 299 297 297
81 75 95 134 155 154 152 152 155 157 164 168 168 158 155 148 145 138 133 127 125 118 110 100 97 91 53 331 318 316 315 313 309 305 303 301 298 298 297 295 298 300 298 297
203 189 155 173 163 160 154 152 155 163 154 156 165 157 156 144 139 136 131 127 125 122 124 113 90 24 330 322 318 316 314 311 311 308 306 305 304 302 298 297 295 293 291 290
172 168 173 160 160 162 158 153 153 157 158 153 150 150 148 140 137 135 130 129 127 119 108 97 338 314 319 316 314 314 314 312 310 310 309 309 309 308 307 304 302 298 298 298
160 151 128 155 161 164 159 149 148 144 142 143 143 145 143 140 138 136 131 124 122 125 125 323 309 312 315 313 314 315 316 316 316 317 318 317 316 315 314 315 314 311 309 304
149 166 168 158 152 151 152 147 142 138 138 137 141 141 143 140 138 133 129 133 136 166 282 303 311 317 318 321 324 325 325 324 324 323 323 322 322 323 322 321 322 319 316 311
135 139 146 151 149 149 151 149 144 140 144 142 143 143 143 142 136 133 134 135 243 308 331 325 325 328 328 328 328 327 327 328 327 327 326 326 326 332 335 337 336 325 316 314
128 122 144 143 151 152 153 153 149 147 145 147 148 149 147 143 139 139 138 44 331 333 328 327 329 331 330 330 330 330 330 329 330 332 333 334 334 332 330 326 328 344 344 336
170 161 162 160 159 158 154 150 149 149 150 151 149 149 150 151 154 146 135 327 319 317 317 325 329 331 331 329 329 331 333 334 336 337 336 336 336 331 328 326 328 336 333 339
153 151 155 159 160 156 152 151 153 153 150 150 152 154 154 152 143 147 302 304 304 313 322 329 331 330 330 331 334 334 333 333 333 333 333 334 333 332 330 328 329 332 333 335
149 154 157 154 155 156 152 155 153 150 149 153 158 157 162 159 243 299 307 309 320 328 327 328 328 329 331 330 332 332 331 329 327 328 329 329 329 330 329 329 330 331 333 332
155 155 153 151 150 152 154 152 156 156 154 159 165 168 176 234 300 314 316 318 322 321 322 324 327 328 331 332 332 331 329 327 326 327 328 327 327 326 327 328 331 331 332 332
154 153 148 144 144 142 145 149 161 166 162 161 164 179 247 294 304 309 315 319 319 321 322 324 327 330 332 332 331 332 332 331 329 330 328 328 329 330 330 330 329 329 330 330
148 143 141 143 150 156 161 165 166 167 165 165 175 218 302 309 312 316 315 315 318 325 324 323 324 327 330 331 330 330 331 330 330 331 330 329 330 331 331 331 330 329 328 328
142 145 153 157 164 165 163 164 168 169 180 196 270 310 319 313 307 308 308 314 321 322 322 322 321 320 324 326 325 327 327 328 328 328 327 327 328 329 330 330 330 329 328 327
160 153 155 162 166 170 173 172 176 186 213 253 281 296 301 301 299 301 302 310 316 318 318 319 317 317 320 321 322 324 325 327 327 325 326 327 329 329 329 330 329 328 327 327
161 164 169 172 177 181 182 186 205 227 251 272 284 294 301 301 298 300 303 308 314 317 320 317 314 315 318 319 321 322 324 325 324 323 325 327 328 329 329 330 329 328 327 327
167 169 166 165 169 178 191 206 228 252 266 274 283 295 298 297 296 298 303 308 314 318 320 317 313 312 317 319 320 321 321 320 321 322 324 326 327 328 329 330 330 329 329 329
Wind_Speed_850mb
11 9 10 8 7 13 11 10 12 12 13 15 11 15 21 23 18 20 33 47 54 59 61 63 65 64 59 60 64 64 66 66 64 56 48 45 43 35 33 27 20 13 15 29
4 5 4 9 13 13 12 9 12 10 11 6 3 9 25 23 24 20 14 3 21 46 54 62 64 64 56 65 66 59 62 56 54 48 41 34 35 36 35 17 16 22 46 44
9 5 5 11 16 15 11 8 11 12 16 7 7 13 19 25 29 27 22 19 14 6 14 34 47 53 56 51 52 51 47 49 44 36 38 40 37 27 20 15 41 37 35 36
5 5 3 13 8 9 10 4 9 7 11 12 19 25 25 23 25 25 22 17 12 8 3 10 22 34 41 43 45 45 48 48 45 46 43 28 16 7 37 34 22 24 30 36
9 8 9 2 7 14 13 6 5 12 15 25 34 28 24 18 16 17 15 12 7 5 7 14 23 32 35 36 42 47 48 45 41 32 20 8 27 41 50 21 22 30 40 45
7 9 14 17 8 17 11 4 14 15 16 22 10 5 6 7 12 12 10 9 8 7 8 13 20 27 35 44 48 46 40 33 21 5 19 36 53 21 18 26 37 45 49 42
6 6 14 14 11 19 12 15 36 38 33 30 9 10 25 17 16 14 13 14 15 16 18 22 30 36 42 42 36 29 17 11 21 38 36 26 17 23 33 43 47 45 47 46
7 6 13 13 11 16 13 25 46 35 32 29 31 35 32 25 22 20 21 22 22 27 33 33 27 18 20 13 7 19 22 30 28 20 17 22 30 37 40 41 45 48 51 54
16 12 4 9 10 14 48 63 42 45 40 38 46 40 34 31 29 31 34 34 32 32 34 29 19 10 1 4 7 12 13 13 16 22 29 33 36 39 42 44 50 54 55 59
8 4 2 9 29 51 52 53 42 42 41 40 44 43 40 39 41 38 34 32 28 24 20 17 11 10 10 8 7 11 17 21 26 29 31 35 39 42 48 51 55 60 64 67
5 3 14 11 34 47 46 45 44 40 37 37 41 45 47 48 43 37 32 27 21 19 18 21 15 9 4 6 11 14 19 24 29 33 39 45 48 52 56 60 60 65 70 70
10 38 15 27 44 44 47 43 37 36 40 37 41 54 51 48 40 34 33 29 26 24 19 13 5 3 5 11 18 25 30 36 42 47 51 55 62 72 69 69 72 71 72 69
17 58 24 57 51 44 44 41 38 37 38 48 47 50 49 48 42 38 34 27 20 15 10 5 2 9 14 19 25 31 37 43 50 55 60 66 70 73 83 93 85 86 87 88
47 70 43 58 35 43 42 45 45 46 48 50 53 50 50 46 41 33 25 19 13 7 4 2 8 14 21 28 34 39 43 48 55 59 62 64 66 68 70 73 80 91 88 75
46 25 55 53 55 50 47 55 58 58 57 56 48 46 41 42 33 25 19 12 7 3 3 8 14 21 29 35 42 49 53 56 58 60 61 62 63 65 65 66 68 73 76 72
39 44 59 63 59 58 61 61 63 62 54 52 48 42 35 28 24 19 13 6 3 5 11 18 24 31 39 45 49 51 53 55 57 58 59 59 58 58 58 54 64 70 76 76
67 48 60 62 63 64 61 57 56 57 54 48 41 35 28 24 19 13 6 1 6 11 17 25 32 37 43 46 49 51 52 52 52 51 51 52 53 52 51 50 62 68 60 49
24 47 51 62 72 68 59 55 53 49 44 40 36 31 25 18 12 8 3 4 11 17 23 29 35 40 42 44 44 45 46 47 47 47 48 49 49 46 45 52 57 58 61 57
36 52 54 58 62 61 59 53 44 40 40 37 32 27 19 11 7 2 3 9 15 20 28 33 38 39 38 39 41 42 43 44 45 45 46 47 47 46 48 50 54 55 55 56
55 54 56 58 55 53 51 44 44 42 37 30 24 17 11 6 1 5 9 15 19 26 33 36 36 36 36 38 40 42 43 44 46 46 46 46 46 48 49 50 52 53 51 50
54 56 59 60 54 45 44 41 38 36 32 24 16 11 6 2 5 10 14 19 24 30 34 35 34 34 37 41 43 43 43 43 44 46 46 47 47 47 48 51 52 52 52 49
60 60 54 52 52 48 41 35 28 27 24 19 14 7 2 5 8 12 18 22 27 31 32 33 35 38 40 44 44 45 43 42 43 43 44 44 45 47 48 50 51 51 50 49
55 53 56 45 39 38 35 32 27 21 17 12 7 2 5 9 13 18 22 25 27 29 31 35 37 39 41 44 45 44 43 42 43 43 42 42 44 45 48 49 48 49 50 50
56 51 41 35 37 41 38 32 25 18 11 6 4 9 13 16 20 23 24 24 27 29 32 37 38 39 42 44 44 43 42 42 42 42 41 42 43 45 47 48 48 49 49 48
38 40 40 40 36 32 28 26 20 13 9 9 12 16 18 21 22 22 23 25 29 33 37 39 38 39 42 43 43 41 40 41 41 42 43 45 46 46 47 48 48 50 50 50
42 45 43 33 28 25 22 18 13 12 12 16 20 21 22 21 21 22 24 28 33 38 40 38 37 39 41 42 41 40 39 39 39 42 44 44 45 47 48 48 49 49 50 51
38 34 33 30 24 20 18 15 14 14 17 20 22 22 21 21 22 25 29 32 36 39 38 36 37 38 40 40 39 38 37 38 40 41 42 44 45 48 49 49 49 49 51 52
Wind_Direction_850mb
217 190 188 214 215 165 173 203 164 244 205 262 282 276 280 285 232 238 240 235 234 235 234 235 234 237 240 233 222 229 216 216 216 217 217 226 234 214 228 198 254 227 267 282
90 7 202 198 220 201 207 196 258 253 242 235 345 68 63 80 115 100 98 133 246 247 246 244 238 236 247 225 217 218 210 213 211 212 223 218 212 221 218 222 210 261 297 291
220 5 15 328 224 212 221 195 176 196 221 148 64 72 74 92 90 90 90 86 81 87 252 251 245 245 244 234 217 213 213 207 206 210 207 199 199 200 175 249 296 291 279 273
158 48 317 247 309 214 154 299 241 143 131 127 126 99 85 89 96 91 83 79 78 87 152 216 230 230 228 214 206 198 195 195 199 195 189 172 165 233 306 296 266 268 286 293
138 190 292 331 211 160 154 235 299 134 128 138 119 92 58 74 78 82 83 89 112 158 209 219 220 215 208 193 192 191 186 182 177 163 151 220 305 302 288 268 285 292 295 295
146 152 209 230 230 176 123 246 200 171 167 166 135 95 250 132 127 127 122 122 128 140 169 191 185 197 196 180 176 170 163 155 149 220 305 298 300 282 285 291 290 290 291 285
129 192 284 245 214 149 151 235 175 175 168 172 161 204 164 170 156 160 156 154 152 148 150 157 167 176 165 157 150 145 145 208 261 289 302 301 287 289 289 291 289 287 288 287
86 82 274 188 138 169 203 138 163 163 153 142 146 147 158 166 159 150 139 127 123 121 112 112 121 145 134 146 228 277 287 298 304 302 291 293 294 294 293 291 290 291 293 293
177 206 260 238 238 198 156 154 158 156 158 158 157 160 162 154 141 129 127 126 126 125 124 122 120 109 145 241 280 309 315 319 317 311 307 304 303 301 298 297 297 298 297 296
116 216 37 131 152 159 160 156 156 162 162 164 162 165 157 147 141 138 134 129 126 125 121 111 91 68 70 52 7 333 321 321 322 321 317 311 307 306 305 304 303 299 297 297
81 75 95 134 155 154 152 152 155 157 164 168 168 158 155 148 145 138 133 127 125 118 110 100 97 91 53 331 318 316 315 313 309 305 303 301 298 298 297 295 298 300 298 297
203 189 155 173 163 160 154 152 155 163 154 156 165 157 156 144 139 136 131 127 125 122 124 113 90 24 330 322 318 316 314 311 311 308 306 305 304 302 298 297 295 293 291 290
172 168 173 160 160 162 158 153 153 157 158 153 150 150 148 140 137 135 130 129 127 119 108 97 338 314 319 316 314 314 314 312 310 310 309 309 309 308 307 304 302 298 298 298
160 151 128 155 161 164 159 149 148 144 142 143 143 145 143 140 138 136 131 124 122 125 125 323 309 312 315 313 314 315 316 316 316 317 318 317 316 315 314 315 314 311 309 304
149 166 168 158 152 151 152 147 142 138 138 137 141 141 143 140 138 133 129 133 136 166 282 303 311 317 318 321 324 325 325 324 324 323 323 322 322 323 322 321 322 319 316 311
135 139 146 151 149 149 151 149 144 140 144 142 143 143 143 142 136 133 134 135 243 308 331 325 325 328 328 328 328 327 327 328 327 327 326 326 326 332 335 337 336 325 316 314
128 122 144 143 151 152 153 153 149 147 145 147 148 149 147 143 139 139 138 44 331 333 328 327 329 331 330 330 330 330 330 329 330 332 333 334 334 332 330 326 328 344 344 336
170 161 162 160 159 158 154 150 149 149 150 151 149 149 150 151 154 146 135 327 319 317 317 325 329 331 331 329 329 331 333 334 336 337 336 336 336 331 328 326 328 336 333 339
153 151 155 159 160 156 152 151 153 153 150 150 152 154 154 152 143 147 302 304 304 313 322 329 331 330 330 331 334 334 333 333 333 333 333 334 333 332 330 328 329 332 333 335
149 154 157 154 155 156 152 155 153 150 149 153 158 157 162 159 243 299 307 309 320 328 327 328 328 329 331 330 332 332 331 329 327 328 329 329 329 330 329 329 330 331 333 332
155 155 153 151 150 152 154 152 156 156 154 159 165 168 176 234 300 314 316 318 322 321 322 324 327 328 331 332 332 331 329 327 326 327 328 327 327 326 327 328 331 331 332 332
154 153 148 144 144 142 145 149 161 166 162 161 164 179 247 294 304 309 315 319 319 321 322 324 327 330 332 332 331 332 332 331 329 330 328 328 329 330 330 330 329 329 330 330
148 143 141 143 150 156 161 165 166 167 165 165 175 218 302 309 312 316 315 315 318 325 324 323 324 327 330 331 330 330 331 330 330 331 330 329 330 331 331 331 330 329 328 328
142 145 153 157 164 165 163 164 168 169 180 196 270 310 319 313 307 308 308 314 321 322 322 322 321 320 324 326 325 327 327 328 328 328 327 327 328 329 330 330 330 329 328 327
160 153 155 162 166 170 173 172 176 186 213 253 281 296 301 301 299 301 302 310 316 318 318 319 317 317 320 321 322 324 325 327 327 325 326 327 329 329 329 330 329 328 327 327
161 164 169 172 177 181 182 186 205 227 251 272 284 294 301 301 298 300 303 308 314 317 320 317 314 315 318 319 321 322 324 325 324 323 325 327 328 329 329 330 329 328 327 327
167 169 166 165 169 178 191 206 228 252 266 274 283 295 298 297 296 298 303 308 314 318 320 317 313 312 317 319 320 321 321 320 321 322 324 326 327 328 329 330 330 329 329 329